TimeEDT,TemperatureF,Dew PointF,Humidity,Sea Level PressureIn,VisibilityMPH,Wind Direction,Wind SpeedMPH,Gust SpeedMPH,PrecipitationIn,Events,Conditions,WindDirDegrees,DateUTC
12:56 AM,72.0,68.0,87,30.06,10.0,South,4.6,-,N/A,,Partly Cloudy,170,2013-06-25 04:56:00
1:56 AM,71.1,68.0,90,30.06,8.0,ESE,5.8,-,N/A,,Partly Cloudy,120,2013-06-25 05:56:00
2:56 AM,70.0,68.0,93,30.04,7.0,SE,5.8,-,N/A,,Partly Cloudy,130,2013-06-25 06:56:00
3:56 AM,70.0,68.0,93,30.03,8.0,SE,5.8,-,N/A,,Clear,140,2013-06-25 07:56:00
4:56 AM,73.0,68.0,84,30.04,10.0,SW,3.5,-,N/A,,Partly Cloudy,220,2013-06-25 08:56:00
5:56 AM,71.1,66.9,87,30.04,10.0,Calm,Calm,-,N/A,,Partly Cloudy,0,2013-06-25 09:56:00
6:56 AM,70.0,66.9,90,30.06,7.0,Calm,Calm,-,N/A,,Mostly Cloudy,0,2013-06-25 10:56:00
7:56 AM,72.0,68.0,87,30.06,7.0,ESE,3.5,-,N/A,,Scattered Clouds,110,2013-06-25 11:56:00
8:56 AM,75.9,69.1,79,30.06,9.0,SSW,4.6,-,N/A,,Partly Cloudy,200,2013-06-25 12:56:00
9:56 AM,81.0,71.1,72,30.05,10.0,SW,6.9,-,N/A,,Partly Cloudy,220,2013-06-25 13:56:00
10:56 AM,84.9,72.0,65,30.05,10.0,SW,9.2,-,N/A,,Scattered Clouds,230,2013-06-25 14:56:00
11:56 AM,87.1,73.0,63,30.05,10.0,WSW,8.1,-,N/A,,Mostly Cloudy,250,2013-06-25 15:56:00
12:56 PM,88.0,72.0,59,30.04,10.0,SW,10.4,-,N/A,,Overcast,220,2013-06-25 16:56:00
1:56 PM,89.1,73.0,59,30.02,10.0,Variable,6.9,-,N/A,,Mostly Cloudy,0,2013-06-25 17:56:00
2:56 PM,91.9,72.0,52,29.99,10.0,SSW,12.7,17.3,N/A,,Scattered Clouds,200,2013-06-25 18:56:00
3:56 PM,91.9,69.1,47,29.98,10.0,SW,13.8,18.4,N/A,,Mostly Cloudy,230,2013-06-25 19:56:00
4:56 PM,90.0,70.0,52,29.95,10.0,SSW,13.8,-,N/A,,Scattered Clouds,200,2013-06-25 20:56:00
5:56 PM,91.0,70.0,50,29.94,10.0,SW,12.7,-,N/A,,Mostly Cloudy,220,2013-06-25 21:56:00
6:56 PM,87.1,72.0,61,29.92,10.0,South,9.2,-,N/A,,Scattered Clouds,170,2013-06-25 22:56:00
7:56 PM,86.0,73.0,65,29.91,10.0,South,11.5,-,N/A,,Scattered Clouds,170,2013-06-25 23:56:00
8:56 PM,84.9,73.9,69,29.91,10.0,South,9.2,-,N/A,,Scattered Clouds,170,2013-06-26 00:56:00
9:56 PM,84.0,73.9,72,29.92,10.0,South,9.2,-,N/A,,Scattered Clouds,170,2013-06-26 01:56:00
10:56 PM,82.0,72.0,71,29.93,10.0,South,8.1,-,N/A,,Mostly Cloudy,190,2013-06-26 02:56:00
11:56 PM,82.0,72.0,71,29.94,10.0,SSW,6.9,-,N/A,,Mostly Cloudy,200,2013-06-26 03:56:00